Location: Esp�s Alto
(42.4476°N, 0.5876°E)
Time: 10:46:27
(UTC+00:00)

Cosmos 1674 - Pass Details

Date: 22 October 2019
Orbit: 496 x 518 km, 82.5° (Epoch: 13 November)

Event Time Altitude Azimuth Distance (km) Brightness Sun altitude
Rises 04:46:31 0° 181° (S) 2,568 6.2 -17.6°
Reaches altitude 10° 04:48:37 10° 178° (S) 1,690 5.3 -17.2°
Maximum altitude 04:52:18 67° 96° (E) 543 3.0 -16.5°
Drops below altitude 10° 04:56:00 10° 13° (NNE) 1,708 5.5 -15.9°
Sets 04:58:08 0° 11° (N) 2,598 6.4 -15.5°
